Tracking 19246 objects as of 20-Aug-2018
HD Live streaming from Space Station
objects crossing your sky now

NOAA 16 DEB

Track NOAA 16 DEB now!
10-day predictions


NORAD ID: 42365
Int'l Code: 2000-055RH
Perigee: 783.8 km
Apogee: 869.1 km
Inclination: 98.9 °
Period: 101.3 minutes
Semi major axis: 7197 km
RCS: Unknown
Launch date: September 21, 2000
Source: United States (US)
Launch site: AIR FORCE WESTERN TEST RANGE (AFWTR)

Note: This is SATELLITE DEBRIS
aabbcc
Your satellite tracking list
Your tracking list is empty




NASA's NSSDC Master Catalog

Two Line Element Set (TLE):
1 42365U 00055RH  18231.47144714  .00000722  00000-0  34249-3 0  9993
2 42365  98.8980 322.0771 0059228 162.5522 197.7708 14.21795920130020
Source of the keplerian elements: AFSPC